Location: Vancouver
(49.2500°N, 123.1330°W)
Time: 22:22:17
(UTC-07:00)

Iridium 35 - Visible Passes

Search period start: 28 August 2016 00:00
Search period end: 07 September 2016 00:00
Orbit: 776 x 779 km, 86.4° (Epoch: 28 August)

Date Brightness Start Highest point End Pass type
(mag) Time Alt. Az. Time Alt. Az. Time Alt. Az.
28 Aug 8.0 21:14:22 10° NW 21:17:38 17° WNW 21:20:54 10° WSW visible
29 Aug 7.4 20:40:02 10° NNW 20:44:26 28° W 20:48:49 10° SW visible
31 Aug 8.4 21:15:28 10° NW 21:17:29 12° WNW 21:19:31 10° W visible
01 Sep 8.0 20:40:33 10° NNW 20:44:22 21° WNW 20:48:09 10° SW visible
04 Sep 8.3 20:41:19 10° NW 20:44:14 15° WNW 20:47:10 10° WSW visible
06 Sep 8.5 05:49:30 10° E 05:51:55 13° ENE 05:54:21 10° NE visible
